Preview of NWS' New Version of Forecast
This preview is not operational and should not be used for support decisions.

Regional Weather Roundup (RWR)

Issued by National Weather Service (NWS)

                            
000
ASUS43 KLSX 181907
RWRMO 

WEATHER SUMMARY FOR MISSOURI
NATIONAL WEATHER SERVICE SPRINGFIELD MO
200 PM CDT THU APR 18 2019

NOTE: "FAIR" INDICATES FEW OR NO CLOUDS BELOW 12,000 FEET WITH NO
       SIGNIFICANT WEATHER AND/OR OBSTRUCTIONS TO VISIBILITY.
       CURRENT SKY AND/OR WEATHER CONDITIONS ARE NOT AVAILABLE FOR
       CHILLICOTHE AND FARMINGTON.

MOZ001>031-035>038-043-044-053-054-182000-
...NORTHERN AND WESTERN MISSOURI...
  
CITY           SKY/WX    TMP DP  RH WIND       PRES   REMARKS
KANSAS CTY INT CLOUDY    54  41  61 N16       29.86F                  
KANSAS C DTWN  CLOUDY    56  39  53 N15G22    29.84F                  
LEE'S SUMMIT   CLOUDY    54  39  57 N16G26    29.85F                  
ST JOSEPH      CLOUDY    58  40  51 N20G28    29.89S                  
CHILLICOTHE      N/A     58  39  49 NW12G23   29.83F                  
KIRKSVILLE     CLOUDY    56  42  59 NW14G26   29.80F                  
     
$$
MOZ066>068-077>081-088>096-101>105-182000-
...SOUTHWEST MISSOURI...
  
CITY           SKY/WX    TMP DP  RH WIND       PRES   REMARKS
SPRINGFIELD    CLOUDY    50  44  80 N20       29.79S                  
JOPLIN         CLOUDY    56  44  64 N20G26    29.84S                  
BRANSON        LGT RAIN  48  48 100 N14G23    29.78S VSB 1            
               
$$
MOZ032>034-039>042-045>050-055>058-069>072-182000-
...CENTRAL MISSOURI...  
  
CITY           SKY/WX    TMP DP  RH WIND       PRES   REMARKS
COLUMBIA       CLOUDY    51  41  68 NW16      29.79S                  
JEFFERSON CITY CLOUDY    52  41  66 N15G24    29.80R                  
ROLLA          CLOUDY    48  43  82 N10       29.79S                  
SEDALIA        CLOUDY    51  44  77 NW20G29   29.82F                  
WHITEMAN AFB   CLOUDY    55  42  62 N16G25    29.78F                  
WARRENSBURG    CLOUDY    54  41  62 NW14G22   29.83F                  
OSAGE BEACH    CLOUDY    50  43  77 NW10G17   29.82R                  
               
$$
MOZ051-052-059>065-182000-
...EAST CENTRAL MISSOURI...
  
CITY           SKY/WX    TMP DP  RH WIND       PRES   REMARKS
ST LOUIS INTL  LGT RAIN  49  45  86 NW10      29.78R FOG              
SPIRIT OF STL  LGT RAIN  51  47  86 NW7       29.77R FOG              
ST CHARLES     CLOUDY    50  44  80 NW14      29.77R                  
                   
$$
MOZ072>076-082>087-097>100-106>115-182000-
...SOUTH CENTRAL AND SOUTHEAST MISSOURI...
  
CITY           SKY/WX    TMP DP  RH WIND       PRES   REMARKS
CAPE GIRARDEAU LGT RAIN  64  60  87 SW8       29.68F                  
FARMINGTON     LGT RAIN  51  50  96 NW16G23   29.74R                  
POPLAR BLUFF   LGT RAIN  63  62  97 S6        29.68F                  
WEST PLAINS    LGT RAIN  52  49  89 N10       29.73S                  
                                       
$$